Preview of NWS' New Version of Forecast
This preview is not operational and should not be used for support decisions.

Regional Weather Roundup (RWR)

Issued by National Weather Service (NWS)

                            
000
ASUS46 KSEW 240710
RWRWA 

WASHINGTON REGIONAL WEATHER ROUNDUP
NATIONAL WEATHER SERVICE SEATTLE WA
1200 AM PDT MON JUN 24 2019

NOTE:"FAIR" INDICATES FEW OR NO CLOUDS BELOW 12,000 FEET WITH NO 
SIGNIFICANT WEATHER AND/OR OBSTRUCTIONS TO VISIBILITY.

WAZ507-509-555>559-240800-
SEATTLE, TACOMA, EVERETT, AND VICINITY
  
CITY           SKY/WX    TMP DP  RH WIND       PRES   REMARKS
EVERETT        LGT RAIN  52  50  93 NE5       30.14S                  
BOEING FIELD   CLOUDY    56  48  74 CALM      30.13F                  
RENTON         CLOUDY    56  48  74 CALM      30.13F HAZE             
SEATAC AIRPORT CLOUDY    56  47  71 E7        30.13S                  
JBLM-MCCHORD   CLOUDY    55  49  80 S7        30.13F                  
PUYALLUP       CLOUDY    55  46  71 VRB5      30.14S                  
BREMERTON      MOCLDY    53  49  86 NE6       30.13S                  
JBLM-FT LEWIS  CLOUDY    55  51  85 S6        30.12F                  
TACOMA NARROWS CLOUDY    55  46  71 S3        30.13F                  
$$
 
WAZ001-503-506-510-514-515-240800-
NORTH INTERIOR
  
CITY           SKY/WX    TMP DP  RH WIND       PRES   REMARKS
BELLINGHAM     CLOUDY    55  48  77 S6        30.09F                  
FRIDAY HARBOR  CLOUDY    54  47  77 W8        30.10F                  
EASTSOUND      CLOUDY    57  50  77 S6        30.08S                  
PORT ANGELES   CLEAR     50  46  86 W9        30.13S                  
EDIZ HOOK      FAIR      52  49  89 NW15      30.12S                  
PORT TOWNSEND  FAIR      52  48  87 W7        30.12S                  
NAS WHIDBEY    MOCLDY    57  48  72 W20G28    30.14F                  
ARLINGTON      CLOUDY    53  49  86 SE3       30.14S                  
BURLINGTON     CLOUDY    54  50  87 SW6       30.11F                  
$$
 
WAZ020-022-039-040-504-511-512-240800-
SOUTHWEST INTERIOR
  
CITY           SKY/WX    TMP DP  RH WIND       PRES   REMARKS
SHELTON        CLOUDY    54  46  74 W8        30.10F                  
OLYMPIA        CLOUDY    53  46  77 S9        30.13F                  
CHEHALIS       FAIR      50  48  93 CALM      30.15F                  
KELSO          CLOUDY    56  48  74 NW7       30.16F                  
VANCOUVER      CLEAR     56  45  66 NW5       30.13F                  
SCAPPOOSE, OR  CLEAR     55  45  68 NW7       30.13F                  
PORTLAND, OR   PTCLDY    56  45  66 NW9       30.14F                  
$$
 
WAZ021-516-517-240800-
WASHINGTON COAST
  
CITY           SKY/WX    TMP DP  RH WIND       PRES   REMARKS
FORKS          CLOUDY    53  49  86 CALM      30.15F                  
HOQUIAM        CLOUDY    54  53  97 NW9       30.16F                  
ASTORIA, OR    MOCLDY    53  49  86 CALM      30.15F                  
$$
 
WAZ019-023-024-040-567>569-240800-
CASCADE MOUNTAINS AND COLUMBIA GORGE
  
CITY           SKY/WX    TMP DP  RH WIND       PRES   REMARKS
STAMPEDE PASS  LGT RAIN  42  40  92 VRB6      30.07F VSB 1/2          
TROUTDALE, OR  PTCLDY    56  46  69 VRB3      30.13F                  
HOOD RIVER, OR MOSUNNY   57  45  62 NW9       30.07F                  
THE DALLES, OR CLEAR     61  46  57 NW18G29   30.03F                  
$$

WAZ026-027-041>044-520-521-240800-
EAST SLOPES
  
CITY           SKY/WX    TMP DP  RH WIND       PRES   REMARKS
OMAK           CLEAR     58  35  42 N10       29.90S                  
WENATCHEE      PTCLDY    60  39  45 W16       29.93S                  
ELLENSBURG     PTCLDY    56  42  59 NW21G30   29.99F                  
YAKIMA         CLEAR     60  38  43 NW8       29.99S                  
SUNNYSIDE ARPT SUNNY     52  46  79 SE3       29.98                   
YAKIMA TC      FAIR      57  37  47 N5        29.98S                  
$$

WAZ028-034-035-240800-
COLUMBIA BASIN
  
CITY           SKY/WX    TMP DP  RH WIND       PRES   REMARKS
EPHRATA        CLEAR     63  35  35 NW21G31   29.89F                  
MOSES LAKE     CLEAR     60  40  47 SW7       29.93R                  
PASCO          CLEAR     61  40  45 SW9       29.97S                  
RICHLAND ARPT  SUNNY     59  42  52 CALM      29.98                   
HERMISTON, OR  CLEAR     60  43  53 SW13      29.99S                  
$$

WAZ036>038-240800-
NORTHEAST WASHINGTON
  
CITY           SKY/WX    TMP DP  RH WIND       PRES   REMARKS
SPOKANE GEIGER CLOUDY    60  35  39 SW12      29.90S                  
SPOKANE FELTS  CLOUDY    63  36  36 SW7       29.89S                  
FAIRCHILD AFB  CLOUDY    55  35  47 W7        29.90S                  
COEURDALENE,ID CLOUDY    55  52  89 NE3       29.90F                  
DEER PARK      CLOUDY    56  48  74 N6        29.88S                  
$$

WAZ029>033-240800-
SOUTHEAST WASHINGTON
  
CITY           SKY/WX    TMP DP  RH WIND       PRES   REMARKS
PULLMAN        CLOUDY    57  42  57 SW13      29.98S                  
LEWISTON, ID   PTCLDY    63  42  46 SW7       29.94S                  
WALLA WALLA    CLOUDY    61  44  53 S8        30.01S                  
PENDLETON, OR  PTCLDY    58  40  51 W17G24    30.01S                  
$$